This is the latest recevied weather packets stored in our database for station/object F4AMY-13. If no packets are shown the sender has not sent any weather packets the latest 10 day(s).
| Time | Temp. | Humidity | Pressure | Rain* | Wind** | Luminosity | Snow |
|---|---|---|---|---|---|---|---|
| 1777625238 | 17.78° C | 57% | 1022.2 hPa | 0 mm | 24.59 m/s, ° | 55 W/m² | - |
| 1777624937 | 17.78° C | 57% | 1022.3 hPa | 0 mm | 27.72 m/s, ° | 62 W/m² | - |
| 1777624637 | 17.78° C | 58% | 1022.1 hPa | 0 mm | 29.06 m/s, ° | 65 W/m² | - |
| 1777624337 | 17.78° C | 60% | 1022.2 hPa | 0 mm | 26.82 m/s, ° | 60 W/m² | - |
| 1777624037 | 17.78° C | 61% | 1021.9 hPa | 0 mm | 25.93 m/s, ° | 58 W/m² | - |
| 1777623737 | 17.78° C | 60% | 1022.2 hPa | 0 mm | 26.38 m/s, ° | 59 W/m² | - |
| 1777623437 | 17.78° C | 58% | 1022 hPa | 0 mm | 23.25 m/s, ° | 52 W/m² | - |
| 1777623137 | 17.78° C | 59% | 1021.9 hPa | 0 mm | 24.14 m/s, ° | 54 W/m² | - |
| 1777622837 | 17.78° C | 59% | 1021.8 hPa | 0 mm | 24.14 m/s, ° | 54 W/m² | - |
| 1777622537 | 17.78° C | 59% | 1022 hPa | 0 mm | 21.9 m/s, ° | 49 W/m² | - |
| 1777622237 | 17.78° C | 60% | 1021.8 hPa | 0 mm | 23.69 m/s, ° | 53 W/m² | - |
| 1777621937 | 17.22° C | 59% | 1021.9 hPa | 0 mm | 22.8 m/s, ° | 51 W/m² | - |
| 1777621637 | 17.22° C | 60% | 1022 hPa | 0 mm | 23.69 m/s, ° | 53 W/m² | - |
| 1777621337 | 17.22° C | 61% | 1021.8 hPa | 0 mm | 22.8 m/s, ° | 51 W/m² | - |
| 1777621037 | 17.22° C | 63% | 1021.8 hPa | 0 mm | 21.01 m/s, ° | 47 W/m² | - |
| 1777620737 | 17.22° C | 63% | 1021.8 hPa | 0 mm | 20.12 m/s, ° | 45 W/m² | - |
| 1777620437 | 17.22° C | 64% | 1022 hPa | 0 mm | 19.22 m/s, ° | 43 W/m² | - |
| 1777620137 | 16.67° C | 63% | 1022.1 hPa | 0 mm | 18.78 m/s, ° | 42 W/m² | - |
| 1777619837 | 16.67° C | 62% | 1021.9 hPa | 0 mm | 17.88 m/s, ° | 40 W/m² | - |
| 1777619537 | 16.67° C | 64% | 1021.9 hPa | 0 mm | 16.99 m/s, ° | 38 W/m² | - |
| 1777619237 | 16.67° C | 62% | 1021.5 hPa | 0 mm | 16.09 m/s, ° | 36 W/m² | - |
| 1777618937 | 16.67° C | 61% | 1021.7 hPa | 0 mm | 14.31 m/s, ° | 32 W/m² | - |
| 1777618637 | 16.67° C | 67% | 1021.7 hPa | 0 mm | 12.52 m/s, ° | 28 W/m² | - |
| 1777618336 | 16.67° C | 65% | 1021.7 hPa | 0 mm | 12.52 m/s, ° | 28 W/m² | - |
| 1777618036 | 16.67° C | 64% | 1021.6 hPa | 0 mm | 12.07 m/s, ° | 27 W/m² | - |
* Rain latest hour (hover to see other rain measurements)
** Current wind speed in m/s (hover to see current wind gust speed)